Date String (YYYY-MM-DD hh:mm:ss) UTC,Instrument flags,Ambient pressure (hPa),Sample flow (lpm),Bypass flow (lpm),Sample temperature (°C),Ambient temperature (°C),ASC tube jacket temperature (°C),LED temperature (°C),Box temperature (°C),Sample RH (%),Span deviation,Mass concentration (μg/m³),Mass concentration (μg/m³),Mass concentration (μg/m³)
DateTimeUTC,F1_M11,P_M11,Q1_M11,Q2_M11,T1_M11,T2_M11,T3_M11,T4_M11,T5_M11,U1_M11,ZSPAN_M11,X0_M11,X2_M11,X1_M11
2022-02-01 17:00:00,,0823.4,5.00,0.00,21.4,21.8,00.0,30.5,22.8,07.6,0000.0,0010.09,0001.76,0000.45
2022-02-01 17:01:00,,0823.4,4.99,0.00,21.3,21.3,00.0,30.4,22.6,07.2,0000.0,0010.07,0001.70,0000.42
2022-02-01 17:02:00,,0823.3,4.99,0.00,21.1,20.9,00.0,30.4,22.4,07.4,0000.0,0010.28,0001.57,0000.39
2022-02-01 17:03:00,,0823.5,5.02,0.00,21.0,20.5,00.0,30.3,22.3,07.3,0000.0,0009.30,0001.45,0000.37
2022-02-01 17:04:00,,0823.4,4.99,0.00,21.0,20.6,00.0,30.3,22.3,07.4,0000.0,0008.75,0001.43,0000.36
2022-02-01 17:05:00,,0823.4,5.01,0.00,21.1,21.5,00.0,30.3,22.7,07.6,0000.0,0008.39,0001.42,0000.35
2022-02-01 17:06:00,,0823.3,4.99,0.00,21.3,22.4,00.0,30.4,23.1,07.7,0000.0,0008.03,0001.44,0000.35
2022-02-01 17:07:00,,0823.4,5.00,0.00,21.5,22.8,00.0,30.4,23.3,07.2,0000.0,0008.69,0001.40,0000.35
2022-02-01 17:08:00,,0823.3,4.99,0.00,21.5,22.3,00.0,30.4,23.1,07.1,0000.0,0008.65,0001.34,0000.34
2022-02-01 17:09:00,,0823.3,5.00,0.00,21.4,21.8,00.0,30.4,22.9,06.9,0000.0,0008.09,0001.18,0000.32
2022-02-01 17:10:00,,0823.3,5.00,0.00,21.2,21.3,00.0,30.4,22.6,07.0,0000.0,0007.49,0001.02,0000.30
2022-02-01 17:11:00,,0823.3,5.01,0.00,21.1,21.0,00.0,30.4,22.5,07.1,0000.0,0008.12,0000.96,0000.29
2022-02-01 17:12:00,,0823.3,5.00,0.00,21.0,20.6,00.0,30.3,22.3,07.2,0000.0,0007.64,0000.98,0000.28
2022-02-01 17:13:00,,0823.3,5.01,0.00,21.0,20.8,00.0,30.3,22.4,07.2,0000.0,0006.17,0000.91,0000.27
2022-02-01 17:14:00,,0823.3,4.99,0.00,21.1,21.7,00.0,30.3,22.8,07.0,0000.0,0006.02,0000.89,0000.27
2022-02-01 17:15:00,,0823.3,5.00,0.00,21.3,22.6,00.0,30.4,23.2,07.0,0000.0,0005.75,0000.88,0000.26
2022-02-01 17:16:00,,0823.3,5.01,0.00,21.5,23.0,00.0,30.4,23.4,06.7,0000.0,0005.46,0000.79,0000.25
2022-02-01 17:17:00,,0823.3,4.99,0.00,21.5,22.5,00.0,30.4,23.2,06.8,0000.0,0005.28,0000.78,0000.25
2022-02-01 17:18:00,,0823.4,5.00,0.00,21.4,22.0,00.0,30.4,23.0,07.0,0000.0,0003.94,0000.79,0000.26
2022-02-01 17:19:00,,0823.4,5.00,0.00,21.3,21.5,00.0,30.4,22.7,07.0,0000.0,0004.19,0000.86,0000.26
2022-02-01 17:20:00,,0823.4,5.01,0.00,21.2,21.1,00.0,30.4,22.5,07.0,0000.0,0004.49,0000.91,0000.27
2022-02-01 17:21:00,,0823.4,5.01,0.00,21.1,20.7,00.0,30.3,22.4,07.2,0000.0,0005.03,0000.94,0000.27
2022-02-01 17:22:00,,0823.4,4.99,0.00,21.0,20.5,00.0,30.3,22.3,07.5,0000.0,0003.93,0000.93,0000.28
2022-02-01 17:23:00,,0823.3,4.99,0.00,21.1,21.1,00.0,30.3,22.6,07.2,0000.0,0003.57,0000.92,0000.28
2022-02-01 17:24:00,,0823.4,5.01,0.00,21.2,22.0,00.0,30.3,23.0,07.1,0000.0,0003.65,0000.95,0000.29
2022-02-01 17:25:00,,0823.4,5.01,0.00,21.4,22.9,00.0,30.4,23.3,07.3,0000.0,0003.72,0000.95,0000.30
2022-02-01 17:26:00,,0823.4,5.00,0.00,21.6,22.9,00.0,30.4,23.4,07.2,0000.0,0003.95,0000.93,0000.31
2022-02-01 17:27:00,,0823.3,4.99,0.00,21.5,22.4,00.0,30.4,23.1,06.9,0000.0,0004.68,0000.92,0000.31
2022-02-01 17:28:00,,0823.4,5.00,0.00,21.4,21.8,00.0,30.4,22.9,07.0,0000.0,0004.96,0000.84,0000.30
2022-02-01 17:29:00,,0823.3,5.01,0.00,21.3,21.3,00.0,30.4,22.7,07.1,0000.0,0006.67,0000.81,0000.30
2022-02-01 17:30:00,,0823.3,5.02,0.00,21.2,20.9,00.0,30.4,22.5,07.0,0000.0,0007.06,0000.75,0000.30
2022-02-01 17:31:00,,0823.3,4.99,0.00,21.1,20.5,00.0,30.3,22.3,07.2,0000.0,0007.07,0000.74,0000.31
2022-02-01 17:32:00,,0823.4,4.99,0.00,21.0,20.2,00.0,30.3,22.2,07.3,0000.0,0007.14,0000.77,0000.31
2022-02-01 17:33:00,,0823.4,5.00,0.00,21.0,20.7,00.0,30.3,22.4,07.5,0000.0,0007.04,0000.84,0000.31
2022-02-01 17:34:00,,0823.3,5.02,0.00,21.1,21.8,00.0,30.3,22.8,07.1,0000.0,0006.92,0000.82,0000.31
2022-02-01 17:35:00,,0823.3,4.99,0.00,21.3,22.5,00.0,30.4,23.2,07.2,0000.0,0006.83,0000.80,0000.31
2022-02-01 17:36:00,,0823.3,5.00,0.00,21.4,22.3,00.0,30.4,23.1,07.1,0000.0,0006.92,0000.84,0000.31
2022-02-01 17:37:00,,0823.4,5.02,0.00,21.4,21.9,00.0,30.4,22.9,07.0,0000.0,0006.70,0000.86,0000.31
2022-02-01 17:38:00,,0823.3,5.01,0.00,21.3,21.5,00.0,30.3,22.7,07.0,0000.0,0006.34,0000.91,0000.32
2022-02-01 17:39:00,,0823.3,4.99,0.00,21.2,21.1,00.0,30.3,22.6,07.2,0000.0,0006.76,0001.00,0000.32
2022-02-01 17:40:00,,0823.4,4.99,0.00,21.1,20.9,00.0,30.3,22.5,07.3,0000.0,0006.48,0001.01,0000.32
2022-02-01 17:41:00,,0823.3,5.01,0.00,21.0,20.6,00.0,30.3,22.4,07.6,0000.0,0006.13,0001.02,0000.33
2022-02-01 17:42:00,,0823.3,4.99,0.00,21.0,20.6,00.0,30.2,22.3,07.2,0000.0,0006.16,0001.03,0000.34
2022-02-01 17:43:00,,0823.3,5.01,0.00,21.1,21.4,00.0,30.3,22.7,07.3,0000.0,0006.06,0001.04,0000.34
2022-02-01 17:44:00,,0823.4,5.00,0.00,21.3,22.4,00.0,30.3,23.1,07.7,0000.0,0006.13,0001.04,0000.35
2022-02-01 17:45:00,,0823.3,5.00,0.00,21.5,22.8,00.0,30.4,23.3,07.9,0000.0,0006.41,0001.10,0000.36
2022-02-01 17:46:00,,0823.3,4.99,0.00,21.5,22.3,00.0,30.4,23.1,07.8,0000.0,0006.83,0001.17,0000.38
2022-02-01 17:47:00,,0823.3,5.01,0.00,21.4,21.9,00.0,30.4,22.9,07.7,0000.0,0007.05,0001.20,0000.39
2022-02-01 17:48:00,,0823.3,4.99,0.00,21.3,21.4,00.0,30.4,22.8,07.5,0000.0,0007.52,0001.21,0000.40
2022-02-01 17:49:00,,0823.3,5.00,0.00,21.2,21.1,00.0,30.4,22.6,07.6,0000.0,0007.66,0001.23,0000.41
2022-02-01 17:50:00,,0823.3,5.01,0.00,21.1,20.8,00.0,30.3,22.5,07.8,0000.0,0007.23,0001.27,0000.43
2022-02-01 17:51:00,,0823.3,4.99,0.00,21.1,20.7,00.0,30.3,22.4,07.7,0000.0,0006.66,0001.35,0000.45
2022-02-01 17:52:00,,0823.4,5.01,0.00,21.1,21.5,00.0,30.3,22.7,07.8,0000.0,0006.40,0001.38,0000.46
2022-02-01 17:53:00,,0823.3,5.00,0.00,21.3,22.5,00.0,30.4,23.2,07.8,0000.0,0006.65,0001.47,0000.47
2022-02-01 17:54:00,,0823.3,5.00,0.00,21.5,22.9,00.0,30.4,23.4,07.9,0000.0,0006.62,0001.51,0000.48
2022-02-01 17:55:00,,0823.2,4.99,0.00,21.5,22.5,00.0,30.4,23.3,07.8,0000.0,0006.63,0001.59,0000.50
2022-02-01 17:56:00,,0823.2,5.01,0.00,21.5,22.0,00.0,30.4,23.0,07.5,0000.0,0006.71,0001.63,0000.49
2022-02-01 17:57:00,,0823.2,5.00,0.00,21.4,21.5,00.0,30.4,22.8,07.5,0000.0,0006.37,0001.63,0000.48
2022-02-01 17:58:00,,0823.2,5.01,0.00,21.3,21.1,00.0,30.4,22.7,07.6,0000.0,0006.13,0001.62,0000.48
2022-02-01 17:59:00,,0823.1,5.00,0.00,21.2,20.8,00.0,30.4,22.5,07.4,0000.0,0005.92,0001.62,0000.47
